Location: ??
(35.5052°N, 139.7262°E)
Time: 01:48:45
(UTC+00:00)

COSMOS 2441 - Pass Details

Date: 20 June 2021
Orbit: 707 x 732 km, 98.1° (Epoch: 26 July)

Event Time Altitude Azimuth Distance (km) Brightness Sun altitude
Rises 17:57:29 0° 8° (N) 3,127 8.6 -15.2°
Reaches altitude 10° 17:59:47 10° 5° (N) 2,200 7.6 -14.9°
Maximum altitude 18:04:32 63° 285° (WNW) 794 4.4 -14.2°
Enters shadow 18:07:55 19° 209° (SSW) 1,660 5.7 -13.7°
